Regional Weather Roundup
Issued by NWS

Home | Current Version | Previous Version | Graphics & Text | Print | Product List | Glossary On
Versions: 1 2 3 4 5 6 7 8 9 10 11 12 13 14 15 16 17 18 19 20 21 22 23 24 25 26 27 28 29 30 31 32 33 34 35 36 37 38 39 40 41 42 43 44 45 46 47 48 49 50
000
ASUS43 KDMX 220506
RWRIA

WEATHER ROUNDUP FOR IOWA
NATIONAL WEATHER SERVICE DES MOINES IA
1200 AM CDT WED MAR 22 2017

NOTE: "FAIR" INDICATES FEW OR NO CLOUDS BELOW 12,000 FEET WITH NO
SIGNIFICANT WEATHER AND/OR OBSTRUCTIONS TO VISIBILITY.

* - THESE STATIONS ARE NOT NWS STATIONS...THUS NOT UNDER NWS
QUALITY CONTROL.  THEY ALSO DO NOT REPORT WEATHER SUCH
AS PRECIPITATION OR FOG.

IAZ001>003-012>014-020>022-031>034-043>046-220600-
   NORTHWEST IOWA

CITY           SKY/WX    TMP DP  RH WIND       PRES   REMARKS
CARROLL *        N/A     32  23  69 NE9       30.46S WCI  24
CHEROKEE *       N/A     29  21  71 NE5       30.48S WCI  24
DENISON *        N/A     34  23  64 NE8       30.44R WCI  27
LE MARS *        N/A     30  23  74 N6        30.49S WCI  24
ORANGE CITY *    N/A     28  25  86 NE3       30.47S
SHELDON *        N/A     27  27 100 NE5       30.47R WCI  21
SIOUX CITY     MOCLDY    34  23  64 NE10      30.47S WCI  26
SPENCER          N/A     28  20  71 NE8       30.48R WCI  20
STORM LAKE *     N/A     30  21  69 NE15      30.46R WCI  19
$$

IAZ055>058-069>071-079>083-090>094-220600-
   SOUTHWEST IOWA

CITY           SKY/WX    TMP DP  RH WIND       PRES   REMARKS
ATLANTIC *     CLOUDY    37  27  65 NE14      30.44S WCI  29
AUDUBON *        N/A     34  23  64 N8        30.46R WCI  27
CLARINDA *       N/A     41  25  52 NE12G23   30.43S
COUNCIL BLFS * MOCLDY    37  27  65 NE12      30.43R WCI  30
CRESTON *      MOCLDY    36  27  69 NE12G18   30.43R WCI  27
HARLAN  *      MOCLDY    36  27  69 NE12      30.48R WCI  27
LAMONI           N/A     39  23  52 NE14      30.40R WCI  31
RED OAK *      CLOUDY    39  27  60 NE14G20   30.43S WCI  31
SHENANDOAH *     N/A     39  25  56 NE13G21   30.43R WCI  32
$$

IAZ047>049-059>061-072>074-084-220600-
   CENTRAL IOWA

CITY           SKY/WX    TMP DP  RH WIND       PRES   REMARKS
AMES             N/A     32  21  64 N9        30.46R WCI  24
ANKENY *         N/A     32  23  69 N9        30.47R WCI  24
BOONE *          N/A     30  21  69 N8        30.45R WCI  23
CHARITON *       N/A     36  23  60 N12       30.42R WCI  27
DES MOINES     MOCLDY    37  21  52 NE16      30.45R WCI  28
GRINNELL*        N/A     32  20  63 N12       30.44R WCI  23
MARSHALLTOWN     N/A     27  19  72 N12       30.44R WCI  17
NEWTON *         N/A     32  19  59 NE15      30.43R WCI  22
PELLA *          N/A     33  23  65 N10       30.44S WCI  25
PERRY *          N/A     32  21  64 N8        30.46R WCI  25
$$

IAZ004>006-015-016-023>025-035-036-220600-
   NORTH CENTRAL IOWA

CITY           SKY/WX    TMP DP  RH WIND       PRES   REMARKS
ALGONA *         N/A     28  19  69 NE10      30.47S WCI  19
CLARION *        N/A     28  23  80 NE9       30.47R WCI  20
ESTHERVILLE      N/A     26  18  71 NE12      30.47S WCI  16
FORT DODGE *     N/A     28  18  64 N6        30.48R WCI  22
MASON CITY       N/A     26  16  65 NE9       30.47S WCI  17
FOREST CITY *    N/A     27  18  69 NE9       30.46S WCI  17
WEBSTER CITY *   N/A     30  19  64 NE9       30.45R WCI  22
IOWA FALLS *     N/A     31  19  60 N9        30.46R WCI  23
$$

IAZ007>011-017>019-026>030-037>042-050>054-066-220600-
   NORTHEAST IOWA

CITY           SKY/WX    TMP DP  RH WIND       PRES   REMARKS
CEDAR RAPIDS     N/A     32  18  56 N14       30.41R WCI  22
CHARLES CITY *   N/A     28  16  59 N13       30.46S WCI  18
CLINTON *        N/A     33  19  56 NE12      30.41R WCI  24
DECORAH *        N/A     28  10  47 N9        30.45S WCI  20
DUBUQUE          N/A     33  15  47 NE12      30.41R WCI  24
MONTICELLO *     N/A     34  18  51 N10       30.42R WCI  26
OELWEIN *        N/A     28  18  64 NE13      30.44S WCI  18
WATERLOO         N/A     28  15  58 N10       30.45R WCI  19
$$

IAZ064-065-067-068-078-220600-
   EAST CENTRAL IOWA

CITY           SKY/WX    TMP DP  RH WIND       PRES   REMARKS
DAVENPORT        N/A     33  18  53 N15       30.40R WCI  23
IOWA CITY        N/A     37  18  46 N16G22    30.43R WCI  28
MUSCATINE *      N/A     36  18  48 N8        30.41R WCI  29
QUAD CITIES      N/A     38  16  40 N13       30.39R WCI  30
$$

IAZ062-063-075>077-085>089-095>099-220600-
   SOUTHEAST IOWA

CITY           SKY/WX    TMP DP  RH WIND       PRES   REMARKS
BURLINGTON       N/A     38  22  52 N12       30.37R WCI  30
FAIRFIELD *      N/A     34  21  60 N13       30.40R WCI  25
FORT MADISON *   N/A     37  25  60 N10       30.38R WCI  30
KEOKUK *         N/A     39  21  48 N8        30.38R WCI  34
OSKALOOSA *      N/A     33  22  63 N16       30.42S WCI  23
CENTERVILLE *    N/A     37  23  56 N9G16     30.42R WCI  31
OTTUMWA          N/A     35  21  56 N12       30.41R WCI  27
WASHINGTON *     N/A     34  19  55 N13       30.42R WCI  25
$$

ABBREVIATIONS USED IN REMARKS
   TC - TEMPERATURES IN CELSIUS
  WCI - WIND CHILL INDEX
   HX - HEAT INDEX
  VSB - VISIBILITY
$$





USA.gov is the U.S. government's official web portal to all federal, state and local government web resources and services.